Orbital Elements at Epoch 2459200.5 (2020-Dec-17.0) TDB
Reference: JPL 33 (heliocentric ecliptic J2000)
Element | Value | Uncertainty (1-sigma) | Units |
e | .09056397833581324 | 3.103e-08 | |
a | 2.90091157273303 | 1.5384e-08 | au |
q | 2.638193479905926 | 9.0938e-08 | au |
i | 3.005896582335639 | 3.9707e-06 | deg |
node | 136.9413450763008 | 7.1279e-05 | deg |
peri | 250.0549981147184 | 7.6343e-05 | deg |
M | 38.06043468832715 | 2.5216e-05 | deg |
tp | 2459009.703059634904 (2020-Jun-09.20305964) | 0.00012671 | TDB |
period | 1804.679822863407 4.94 | 1.4356e-05 3.93e-08 | d yr |
n | .1994813680738136 | 1.5869e-09 | deg/d |
Q | 3.163629665560133 | 1.6778e-08 | au |
|
| | Orbit Determination Parameters
Additional Information
|